STARLINK-4310, 53074

Orbit data source: Space-Track

STARLINK-4310, 53074 is a payload satellite owned by SpaceX/Seattle (US) in SSO that was launched on Mon, 11 Jul 2022 UTC via an FALCON 9 launch vehicle from the Air Force Western Test Range (AFWTR). Payload-class satellites include a variety of spacecraft equipped with specific instruments for various scientific and technological missions. These include communications satellites like Starlink; space stations such as the ISS; scientific satellites like the Hubble; Earth observation satellites from companies like Planet Labs, Umbra, and HawkEye 360; GPS; miniature CubeSats for education and research; and military/defense satellites.

Loading next visibility...
Identifier
53074, 2022-077AH
Orbit
SSO
Country
Flag of USUS
Related business
Manufacturer
SpaceX/Seattle
Mission
Operational Commercial Communications
Bus & Motor
STARLINK, Unknown motor
Mass
297 kg wet, ~275 kg dry
Launch date (UTC)
2022-07-11 (3 years ago)
Launch vehicle
FALCON 9
Launch site
Air Force Western Test Range (AFWTR)
Object type
Payload
Rocket body
Debris
Shape & HBR
Box + 1 Pan, 10.1 m
Radar Cross Section
13.562 m², Large (>1 m²)

Expand to show TLE details & history
Last TLE update: 22 hours ago

TLE from 22 hours ago
0 STARLINK-4310
1 53074U 22077AH  25348.77583099  .00000355  00000-0  28813-4 0  9996
2 53074  97.6019 167.4863 0001607  86.9037 273.2374 15.05649216188201
Epoch: 2025-12-14T18:37Z
TLE epoch observation values (Epoch: 2025-12-14T18:37:11.797Z)
Latitude
0.00001°
Longitude
164.50324°
Altitude
552.516 km
Speed
7.586 km/s
True Right ascension
11h 09m 56s
True Declination
0° 00' 00"
Sunlit
Object was in daylight at epoch
Visualization orbit readout
Latitude
Unknown
Longitude
Unknown
Altitude
Unknown
Speed
Unknown
Apparent Right ascension
Unknown
Apparent Declination
Unknown
Sunlit
N/A
Visualization observer readout
Local Sidereal Time
15:08:56
Azimuth
Unknown
Elevation
Unknown
Doppler factor
Unknown
Orbital elements
Apogee altitude
547.62 km
Perigee altitude
545.394 km
Semi-major axis
6,924.644 km
Eccentricity
0.00016
Inclination
97.6019°
RAAN
167.4863°
Arg. of periapsis
86.9037°
True anomaly
273.21901°
Mean anomaly
273.2374°
Eccentric anomaly
273.22821°
Mean motion
3.76658 °/min
Orbital period
95.58 mins
BSTAR
0.000028813
Loading maneuver chart data...
Computing Atmospheric mass density...
Loading historical data...
Loading historical data...
Loading historical data...
Loading historical data...
Loading historical data...
Loading historical data...
Loading historical data...

Documentation

Showing up to 5 results
|